[[{"header":{"parameterUnit":"m.s-1","parameterCategory":1,"la1":30.2991,"la2":30.254,"lo1":-89.0895,"lo2":-89.0444,"dy":0.0017,"dx":0.0017,"nx":28,"ny":28,"refTime":"2025-05-16T21:00:00:Z","depth":0,"parameterNumber":2,"parameterNumberName":"U-component_of_WINDS"},"data":[0,0,0,0,0,0,0,0,0,0,0,0,0,0,0,0,0,0,0,0,0,0,0,0,0,0,0,0,0,0,0,0,0,0,0,0,0,0,0,0,0,0,0,0,0,0,0,0,0,0,0,0,0,0,0,0,0,0,0.8649,0.865,0,0.8716,0.8716,0.8717,0.8734,0.8734,0.8733,0.8733,0.8804,0.8806,0.8808,0,0,0,0,0,0,0,0,0,0,0,0,0,0.8539,0.8541,0.8649,0.865,0.8651,0.8715,0.8716,0.8717,0.8734,0.8734,0.8733,0.8733,0.8803,0.8806,0.8808,0,0,0,0,0,0,0,0,0,0,0,0,0,0.8594,0.8542,0.8649,0.8667,0.8669,0.8715,0.8716,0.8718,0.8734,0.8734,0.8733,0.8732,0.8802,0.8805,0.8809,0.8843,0,0,0.8819,0.8821,0,0,0,0,0,0,0,0,0.8591,0.8598,0.8663,0.8666,0.8668,0.8716,0.8704,0.876,0.8734,0.871,0.8733,0.8732,0.8775,0.8781,0.8795,0.8846,0.8849,0.8819,0.8822,0.8823,0.8824,0,0,0,0,0,0,0,0.8587,0.8596,0.8675,0.8664,0.8667,0.8672,0.868,0.8714,0.8745,0.8712,0.8713,0.8721,0.8776,0.8791,0.8796,0.885,0.8819,0.8822,0.8825,0.8826,0.8934,0.8934,0,0,0,0,0,0,0.858,0.8592,0.8673,0.8677,0.8627,0.8675,0.8683,0.8701,0.8745,0.8751,0.8721,0.8721,0.8786,0.8792,0.8799,0.8842,0.8823,0.8826,0.8828,0.8933,0.8934,0.8935,0,0,0,0,0,0,0.8578,0.8587,0.8671,0.8635,0.8646,0.8677,0.8698,0.8703,0.8718,0.8752,0.8758,0.873,0.8786,0.8794,0.8832,0.8845,0.8828,0.8831,0.8932,0.8933,0.8934,0.8929,0,0,0,0,0,0,0.8574,0.8586,0.8599,0.8635,0.8648,0.8701,0.8699,0.8705,0.8723,0.8724,0.8762,0.8768,0.8786,0.8826,0.8835,0.8849,0.8834,0.8931,0.8932,0.8934,0.8928,0.893,0.8931,0,0,0,0,0,0.857,0.8595,0.8599,0.8609,0.8664,0.8702,0.8709,0.8728,0.8724,0.8738,0.876,0.8767,0.8842,0.883,0.884,0.8856,0.893,0.8932,0.8934,0.8927,0.8929,0.8931,0,0,0,0,0,0,0.856,0.86,0.8605,0.8642,0.8668,0.8705,0.8722,0.873,0.8759,0.8758,0.8781,0.879,0.8826,0.8845,0.8831,0.8891,0.8886,0.889,0.8878,0.888,0.8882,0.8877,0.8836,0,0,0,0,0,0.8561,0.8588,0.8622,0.8651,0.8664,0.8691,0.8708,0.872,0.8749,0.876,0.8785,0.8813,0.8843,0.8863,0.8892,0.893,0.894,0.8946,0.8948,0.8949,0.8952,0.8975,0.8978,0.8941,0.8941,0.8941,0,0,0.8566,0.8591,0.8606,0.865,0.8672,0.8699,0.87,0.8729,0.8751,0.8765,0.8802,0.8821,0.8854,0.8892,0.891,0.8909,0.8965,0.8951,0.8952,0.8955,0.8977,0.8981,0.8984,0.8942,0.8942,0.8941,0,0,0.8588,0.8609,0.8636,0.8658,0.8691,0.8708,0.8715,0.875,0.8763,0.88,0.8812,0.8838,0.8889,0.8912,0.8931,0.8962,0.897,0.8971,0.8979,0.9001,0.9004,0.9007,0.9019,0.9023,0.8974,0.8974,0.8974,0,0.8589,0.863,0.8649,0.8678,0.8697,0.8711,0.8739,0.876,0.8801,0.8814,0.8811,0.8876,0.8899,0.8943,0.8951,0.8965,0.8974,0.8967,0.9002,0.9005,0.9008,0.902,0.9024,0.8974,0.8974,0.8974,0.8974,0,0.8631,0.8659,0.8678,0.8716,0.8737,0.8766,0.879,0.8809,0.882,0.8838,0.8876,0.8904,0.894,0.8951,0.8962,0.8998,0.8996,0.8997,0.8993,0.9011,0.9023,0.9027,0.8974,0.8974,0.8974,0.8974,0,0,0.8648,0.8697,0.8703,0.8721,0.8758,0.8781,0.8811,0.8845,0.8862,0.889,0.8915,0.8958,0.896,0.8981,0.8995,0.9014,0.9038,0.9013,0.9014,0.9018,0.9079,0.9078,0.9083,0.9043,0.9044,0.9045,0.9077,0,0.8675,0.8727,0.8745,0.8789,0.8816,0.8829,0.8855,0.8881,0.8899,0.8926,0.8946,0.8976,0.8976,0.8989,0.9008,0.9031,0.9051,0.9028,0.9068,0.907,0.906,0.9089,0.9088,0.9117,0.9081,0.9082,0.9083,0,0.8713,0.8741,0.8787,0.8822,0.8834,0.8857,0.889,0.8915,0.8945,0.8957,0.898,0.8993,0.9025,0.9018,0.9064,0.9048,0.9066,0.9079,0.9081,0.9086,0.9078,0.9096,0.9127,0.9131,0.909,0.9089,0.9089,0,0.8722,0.8771,0.8805,0.882,0.8861,0.8877,0.8895,0.8925,0.8944,0.8974,0.8987,0.902,0.9038,0.9064,0.9085,0.9078,0.9129,0.9124,0.9141,0.914,0.9151,0.915,0.9186,0.9161,0.9161,0.9161,0.9161,0,0.8751,0.8779,0.881,0.8831,0.8863,0.8884,0.8915,0.8934,0.896,0.8986,0.9,0.9024,0.905,0.9078,0.9095,0.9131,0.9139,0.915,0.9154,0.9149,0.9148,0.9161,0.916,0.9162,0.9162,0.9162,0.9162,0,0.8766,0.8788,0.8826,0.8862,0.8871,0.8893,0.8924,0.8946,0.8964,0.8997,0.9006,0.9035,0.9068,0.9092,0.9135,0.9147,0.9185,0.9189,0.9175,0.9177,0.9193,0.9191,0.9239,0.9247,0.9216,0.9216,0.9217,0,0.8783,0.8805,0.8843,0.886,0.8878,0.8907,0.8927,0.8949,0.8969,0.9006,0.9023,0.9057,0.9086,0.9139,0.9164,0.9198,0.9203,0.9218,0.9208,0.9203,0.9204,0.9203,0.9206,0.9219,0.9219,0.922,0.922,0,0.8811,0.8821,0.8849,0.8881,0.8904,0.8931,0.8957,0.8971,0.8998,0.9021,0.9054,0.9076,0.912,0.9155,0.9191,0.921,0.922,0.9222,0.9228,0.9223,0.9214,0.922,0.9179,0.9221,0.9221,0.9221,0.9221,0.9221,0.8828,0.8848,0.8878,0.8909,0.8932,0.8956,0.8978,0.8999,0.9028,0.9065,0.9076,0.9112,0.9143,0.9192,0.9212,0.9241,0.924,0.9248,0.925,0.9252,0.9252,0.9209,0.9247,0.9247,0.9247,0.9247,0.9247,0,0.8858,0.8878,0.8906,0.8943,0.8967,0.8973,0.9003,0.9024,0.9054,0.9082,0.911,0.9149,0.9183,0.9211,0.9246,0.9264,0.9269,0.9272,0.9271,0.9276,0.9251,0.9243,0.9267,0.9267,0.9267,0.9267,0.9267,0.9267,0.8876,0.8911,0.8924,0.897,0.8991,0.9025,0.9042,0.9065,0.9087,0.913,0.9158,0.9176,0.9204,0.9241,0.9273,0.928,0.9293,0.9295,0.9304,0.928,0.9278,0.9275,0.9268,0.9297,0.9297,0.9327,0.9327,0.9327]},{"header":{"parameterUnit":"m.s-1","parameterCategory":1,"la1":30.2991,"la2":30.254,"lo1":-89.0895,"lo2":-89.0444,"dy":0.0017,"dx":0.0017,"nx":28,"ny":28,"refTime":"2025-05-16T21:00:00:Z","depth":0,"parameterNumber":3,"parameterNumberName":"V-component_of_WINDS"},"data":[0,0,0,0,0,0,0,0,0,0,0,0,0,0,0,0,0,0,0,0,0,0,0,0,0,0,0,0,0,0,0,0,0,0,0,0,0,0,0,0,0,0,0,0,0,0,0,0,0,0,0,0,0,0,0,0,0,0,5.2604,5.2604,0,5.2548,5.2548,5.2547,5.2497,5.2496,5.2496,5.2495,5.2435,5.2434,5.2433,0,0,0,0,0,0,0,0,0,0,0,0,0,5.2666,5.2665,5.2604,5.2604,5.2603,5.2548,5.2548,5.2547,5.2497,5.2496,5.2496,5.2495,5.2435,5.2434,5.2433,0,0,0,0,0,0,0,0,0,0,0,0,0,5.2628,5.2665,5.2604,5.2571,5.2568,5.2549,5.2548,5.2547,5.2497,5.2496,5.2495,5.2495,5.2436,5.2434,5.2432,5.244,0,0,5.2428,5.2427,0,0,0,0,0,0,0,0,5.263,5.2625,5.2577,5.2574,5.257,5.2529,5.2547,5.2511,5.2497,5.2524,5.2495,5.2494,5.2467,5.2462,5.2454,5.2437,5.2435,5.2427,5.2426,5.2426,5.2425,0,0,0,0,0,0,0,5.2633,5.2627,5.2582,5.2576,5.2572,5.2559,5.2552,5.254,5.2501,5.2521,5.2518,5.2512,5.2464,5.2455,5.2452,5.2434,5.2427,5.2426,5.2425,5.2424,5.2423,5.2424,0,0,0,0,0,0,5.2641,5.263,5.2584,5.258,5.2598,5.2559,5.2551,5.2543,5.2501,5.2494,5.2513,5.251,5.2459,5.2454,5.245,5.2457,5.2426,5.2424,5.2423,5.2422,5.2423,5.2424,0,0,0,0,0,0,5.2642,5.2637,5.2586,5.2604,5.2597,5.2558,5.2549,5.2542,5.2533,5.2494,5.2487,5.2511,5.2458,5.2452,5.2444,5.2454,5.2424,5.2422,5.2421,5.2422,5.2424,5.2472,0,0,0,0,0,0,5.2644,5.2638,5.2641,5.2605,5.2596,5.2582,5.255,5.2542,5.2531,5.2526,5.249,5.2484,5.2456,5.2446,5.2442,5.2452,5.2421,5.242,5.2422,5.2423,5.2469,5.2475,5.248,0,0,0,0,0,5.2646,5.2655,5.2641,5.2636,5.2599,5.2582,5.2577,5.2547,5.2532,5.2534,5.251,5.2485,5.2454,5.2446,5.2441,5.245,5.2419,5.2421,5.2423,5.2467,5.2474,5.2479,0,0,0,0,0,0,5.2692,5.265,5.2634,5.2631,5.2611,5.2574,5.2576,5.2554,5.2537,5.2534,5.2496,5.2488,5.2484,5.2466,5.2458,5.2456,5.2433,5.2434,5.2468,5.2474,5.248,5.2484,5.242,0,0,0,0,0,5.2702,5.2693,5.2656,5.2657,5.2648,5.2614,5.2606,5.2584,5.2561,5.2552,5.2526,5.2505,5.249,5.2481,5.2465,5.2466,5.2458,5.247,5.2476,5.248,5.2482,5.2482,5.2488,5.2431,5.2431,5.2431,0,0,5.2722,5.2698,5.2694,5.2666,5.2648,5.2639,5.2607,5.2598,5.2592,5.255,5.2542,5.2522,5.2495,5.2492,5.249,5.2477,5.2496,5.2483,5.2487,5.2485,5.2485,5.249,5.2495,5.2432,5.2432,5.2432,0,0,5.2754,5.2735,5.2735,5.2718,5.2691,5.2669,5.2669,5.2635,5.2622,5.2613,5.2582,5.2573,5.2548,5.2531,5.2519,5.2547,5.2524,5.2543,5.257,5.2571,5.2576,5.2579,5.2591,5.2595,5.2544,5.2544,5.2544,0,5.2782,5.2768,5.2737,5.2731,5.272,5.2684,5.2684,5.2668,5.2638,5.2631,5.2617,5.2587,5.2566,5.256,5.2567,5.2558,5.2557,5.2547,5.2578,5.2581,5.2584,5.2594,5.2599,5.2547,5.2547,5.2546,5.2546,0,5.2805,5.2796,5.2799,5.2772,5.2761,5.2758,5.2726,5.2719,5.2699,5.2678,5.267,5.2644,5.2623,5.262,5.2599,5.2611,5.2604,5.2585,5.2561,5.2593,5.2602,5.2605,5.2551,5.255,5.2549,5.2548,0,0,5.2863,5.2821,5.2822,5.281,5.2779,5.2771,5.2767,5.2748,5.2744,5.2724,5.272,5.2701,5.2683,5.267,5.2647,5.2648,5.2674,5.2629,5.2628,5.2639,5.2687,5.2702,5.2707,5.2659,5.2659,5.266,5.2689,0,5.2891,5.2882,5.2854,5.2854,5.2846,5.2812,5.2808,5.2789,5.277,5.276,5.2738,5.2726,5.2703,5.2695,5.2695,5.2671,5.2683,5.2668,5.2655,5.2655,5.2663,5.2712,5.2727,5.2757,5.2693,5.2693,5.2694,0,5.2921,5.2906,5.2905,5.2877,5.2872,5.2869,5.2851,5.2842,5.2819,5.2805,5.2792,5.2767,5.2761,5.2739,5.273,5.2721,5.2714,5.2702,5.2702,5.27,5.2676,5.2712,5.2765,5.277,5.2699,5.2698,5.2698,0,5.2966,5.2944,5.2942,5.2932,5.2898,5.2898,5.2883,5.286,5.2851,5.2835,5.2829,5.2812,5.2802,5.2789,5.2761,5.2748,5.2756,5.2732,5.2745,5.2746,5.2748,5.2748,5.2802,5.2743,5.2743,5.2742,5.2742,0,5.3,5.3001,5.2961,5.296,5.296,5.2929,5.293,5.2912,5.2892,5.2887,5.2856,5.2851,5.2814,5.2805,5.2783,5.278,5.2776,5.2764,5.2759,5.2768,5.2769,5.2763,5.276,5.2744,5.2743,5.2743,5.2743,0,5.3049,5.3023,5.3018,5.2987,5.2979,5.2981,5.2954,5.2951,5.2931,5.2924,5.2921,5.2888,5.2877,5.2847,5.2827,5.2812,5.2816,5.2804,5.2824,5.282,5.2836,5.2835,5.2887,5.2893,5.2829,5.283,5.2831,0,5.3073,5.3073,5.3043,5.3038,5.3025,5.3017,5.3008,5.2977,5.297,5.2946,5.2946,5.2932,5.2919,5.2902,5.2877,5.2861,5.285,5.287,5.2847,5.2857,5.2852,5.2853,5.2853,5.2874,5.2875,5.2876,5.2877,0,5.3119,5.3106,5.3095,5.3081,5.3072,5.3058,5.3043,5.304,5.3006,5.2999,5.2987,5.2978,5.2958,5.2945,5.2927,5.2911,5.2889,5.2884,5.2886,5.2896,5.2908,5.2903,5.2838,5.2883,5.2882,5.2882,5.2881,5.2881,5.3156,5.3156,5.3135,5.3125,5.3111,5.3098,5.3094,5.3074,5.3064,5.3047,5.303,5.302,5.2999,5.2972,5.2959,5.2951,5.2939,5.2942,5.2943,5.2945,5.2949,5.2909,5.2947,5.2947,5.2947,5.2947,5.2947,0,5.3201,5.3187,5.3178,5.3159,5.3151,5.3131,5.3114,5.3109,5.3101,5.3084,5.3073,5.306,5.3048,5.3022,5.3008,5.3007,5.2996,5.3004,5.3004,5.3001,5.296,5.296,5.3013,5.3013,5.3013,5.3013,5.3013,5.3013,5.3224,5.3223,5.3208,5.32,5.3185,5.3177,5.3169,5.3157,5.3143,5.3131,5.3121,5.3105,5.3085,5.3069,5.3057,5.305,5.3046,5.3058,5.3048,5.301,5.3004,5.2998,5.2998,5.3057,5.3057,5.3089,5.309,5.309]}]]